Location: Bronnegerveen
(52.9548°N, 6.8388°E)
Time: 02:45:46
(UTC+00:00)

Resurs 1-4 Rocket - Pass Details

Date: 15 June 2025
Orbit: 798 x 812 km, 98.8° (Epoch: 06 July)

Event Time Altitude Azimuth Distance (km) Brightness Sun altitude
Rises 01:40:42 0° 18° (NNE) 3,320 7.3 -8.9°
Reaches altitude 10° 01:43:06 10° 23° (NNE) 2,386 6.2 -8.7°
Maximum altitude 01:48:16 55° 101° (E) 961 2.7 -8.3°
Drops below altitude 10° 01:53:25 10° 179° (S) 2,376 4.0 -7.9°
Enters shadow 01:54:32 - 182° (S) 2,808 4.4 -7.8°
